Regional Weather Roundup
Issued by NWS Pendleton, OR

Home | Current Version | Previous Version | Text Only | Print | Product List | Glossary On
Versions: 1 2 3 4 5 6 7 8 9 10 11 12 13 14 15 16 17 18 19 20 21 22 23 24 25 26 27 28 29 30 31 32 33 34 35 36 37 38 39 40 41 42 43 44 45 46 47 48 49 50
000
ASUS46 KPDT 262325
RWRPDT
PENDLETON REGIONAL WEATHER ROUNDUP
NATIONAL WEATHER SERVICE PENDLETON OREGON
400 PM PDT THU MAR 26 2015

NOTE: FAIR INDICATES FEW OR NO CLOUDS BELOW 12,000 FEET WITH NO
SIGNIFICANT WEATHER AND/OR OBSTRUCTIONS TO VISIBILITY.

# INDICATES UNOFFICIAL STATION AND DATA

WAZ520-270010-
EAST SLOPES OF WASHINGTON CASCADES

CITY            SKY/WX      TMP DP  RH  WIND    PRES   REMARKS
#BUMPING DAM    N/A         60  N/A N/A S5      N/A
#CLE ELUM HS    N/A         67  43  42  CALM    30.13F
#CLE ELUM LAKE  N/A         62  46  56  W1      30.20F
#CLIFFDEL 2NW   N/A         70  46  42  S1      N/A
#GLENWOOD       N/A         70  50  49  CALM    30.16F
#MANASTASH CYN  N/A         64  46  52  N2      30.17F
#NELSON 3SW     N/A         53  50  89  CALM    30.44F
#NILE           N/A         67  47  49  E1      29.44F
#RONALD 2NW     N/A         61  42  50  SW1     30.06F
#SNOWDEN        N/A         63  35  35  CALM    N/A
#TEANAWAY 4NE   N/A         68  52  57  S1      N/A
#TROUT LAKE 1NE N/A         69  51  53  E2      30.17F
$$

WAZ521-270010-
SIMCOE HIGHLANDS

CITY            SKY/WX      TMP DP  RH  WIND    PRES   REMARKS
#CENTERVILLE 1SWN/A         67  49  52  CALM    30.13F
#GOLDENDALE     N/A         67  48  50  SW2     N/A
#GOLDENDALE 1NE N/A         68  38  33  SE2     N/A
#GOLDENDALE 5WNWN/A         67  50  54  SW3     30.18F
#GOODNOE HILLS  N/A         74  51  44  E3      N/A
#LYLE 6NE       N/A         65  54  68  SW1     30.14F
$$

WAZ026-270010-
KITTITAS VALLEY

CITY            SKY/WX      TMP DP  RH  WIND    PRES   REMARKS
ELLENSBURG AP   SUNNY       71  44  38  CALM    30.19F
#ELLENSBURG CWU N/A         69  44  40  SE3     30.13F
#ELLENSBURG 3NE N/A         66  47  50  E2      30.18F
#ELLENSBURG 1E  N/A         68  41  37  CALM    N/A
#KITTITAS 4N    N/A         67  51  56  NW1     28.49F
#KITTITAS 3S    N/A         68  50  53  N3      30.17F
#THORP 6N       N/A         64  46  52  SE1     30.24F
$$

WAZ027-270010-
YAKIMA VALLEY

CITY            SKY/WX      TMP DP  RH  WIND    PRES   REMARKS
SUNNYSIDE AP    SUNNY       69  51  53  E6      30.18F
YAKIMA AIRPORT  SUNNY       71  46  41  VRB5    30.19F
#DONALD 2NE     N/A         78  40  26  CALM    29.02F
#MABTON         N/A         70  53  55  E3      30.16F
#MOXEE 2E       N/A         68  30  24  S5      30.03F
#NACHES 2SW     N/A         67  51  56  E5      30.20F
#OUTLOOK DOT    N/A         N/A N/A N/A SE6     N/A
#SELAH 8E       N/A         69  45  42  S5      N/A
#TERRACE HTS    N/A         72  51  48  CALM    30.15F
#TOPPENISH      N/A         69  50  51  E2      30.09F
#WAPATO 4NE     N/A         78  40  26  CALM    29.02F
#WEST VALLEY    N/A         68  48  49  CALM    30.16F
#W YAKIMA       N/A         68  48  49  S1      30.18F
#WHITE SWAN 5E  N/A         68  50  53  CALM    30.17F
#WILEY CITY 3W  N/A         69  42  37  S1      30.19F
$$

WAZ028-270010-
LOWER COLUMBIA BASIN...WASHINGTON

CITY            SKY/WX      TMP DP  RH  WIND    PRES   REMARKS
HANFORD         MOSUNNY     71  49  46  E6      30.18F
PASCO           SUNNY       73  48  41  E5      30.19F
PROSSER AWOS    N/A         72  48  43  NE5     30.20F
RICHLAND AWOS   SUNNY       73  50  44  CALM    30.19F
#BASIN CITY 5SW N/A         72  52  49  E2      30.19F
#BENTON CITY    N/A         72  50  46  E3      30.08F
#CONNELL 5N     N/A         71  50  47  SW1     30.20F
#CONNELL 5NW    N/A         69  50  51  SW3     30.16F
#ELTOPIA        N/A         74  50  43  CALM    30.15F
#KAHLOTUS       N/A         69  46  44  SW2     30.21F
#KENNEWICK 3S   N/A         73  51  46  CALM    30.19F
#PASCO-BROADMOORN/A         77  51  40  NE3     30.06F
#PATERSON       N/A         70  49  47  S2      30.15F
#PROSSER        N/A         71  45  39  E1      30.18F
#SAGEMOOR 2W    N/A         70  52  53  CALM    30.04F
#TOUCHET 2S     N/A         72  54  53  S1      30.16F
#WEST PASCO     N/A         75  53  46  E3      30.21F
$$

WAZ029-270010-
FOOTHILLS OF THE BLUES...WASHINGTON

CITY            SKY/WX      TMP DP  RH  WIND    PRES   REMARKS
WALLA WALLA AP  SUNNY       72  45  38  N5      30.20F
#DAYTON SCHOOL  N/A         70  40  34  CALM    30.22F
#LOWDEN 2SE     N/A         74  49  41  N1      30.16F
#PLEASANT VIEW 1N/A         67  46  47  CALM    30.25F
#PRESCOTT       N/A         72  49  44  CALM    30.19F
#SUDBURY        N/A         74  N/A N/A CALM    N/A
#WHITMAN COLLEGEN/A         71  48  44  N5      30.23F
#WAITSBURG 5S   N/A         68  46  45  CALM    30.29F
#WAITSBURG 8N   N/A         73  24  16  S1      30.06F
#WALLA WALLA 5E N/A         71  50  47  N5      N/A
#WALLA WALLA U  N/A         73  47  40  CALM    30.18F
#WHITMAN MISSIONN/A         74  48  40  CALM    30.18F
$$

WAZ030-270010-
BLUE MOUNTAINS...WASHINGTON

CITY            SKY/WX      TMP DP  RH  WIND    PRES   REMARKS
#DIXIE 5SE      N/A         63  44  50  NW5     30.18F
$$

ORZ009-041-WAZ024-270010-
COLUMBIA RIVER GORGE

CITY            SKY/WX      TMP DP  RH  WIND    PRES   REMARKS
HOOD RIVER AP   SUNNY       70  52  53  CALM    30.17F
THE DALLES AP   SUNNY       72  48  43  SW5     30.16F
#ARLINGTON AIRPON/A         69  51  53  E3      29.82
#CELILO DOT     N/A         68  42  39  CALM    N/A
#LYLE           N/A         69  52  55  SW3     30.16F
#MOSIER 1S      N/A         69  39  33  NE2     30.15F
#RUFUS DOT      N/A         70  43  38  CALM    N/A

$$

ORZ510-270010-
NORTH CENTRAL OREGON

CITY            SKY/WX      TMP DP  RH  WIND    PRES   REMARKS
#CHENOWITH 1W   N/A         64  49  58  E3      N/A
#COW CYN RST AREN/A         69  43  39  NE2     N/A
#DUFUR 9E       N/A         63  52  67  NE6     30.22F
#GRASS VALLEY 1SN/A         70  50  49  NE3     30.17F
#KENT DOT       N/A         73  38  28  NE6     N/A
#MAUPIN SCHOOL  N/A         74  51  44  N2      30.15F
#MORO SCHOOL    N/A         69  56  63  NE6     30.18F
#SHANIKO 5WSW   N/A         71  34  26  W5      N/A
#SHANIKO 4NW    N/A         68  41  37  NW2     30.22F
#TYGH VALLEY 2NEN/A         74  49  41  CALM    30.14F
#WAPANITIA AIRPON/A         70  48  46  NW1     30.18F
#WASCO DOT      N/A         69  48  47  NE7     N/A
#WASCO AIRPORT  N/A         68  50  53  E6      N/A
#WASCO 5NE      N/A         68  50  53  N6      30.18F
$$

ORZ511-270010-
CENTRAL OREGON

CITY            SKY/WX      TMP DP  RH  WIND    PRES   REMARKS
BEND AIRPORT    SUNNY       73  39  29  SW5     30.17F
MADRAS AIRPORT  SUNNY       70  46  42  NE7     30.20F
PRINEVILLE AP   SUNNY       75  39  27  SE10    30.17F
REDMOND AIRPORT SUNNY       76  41  28  NE5     30.16F
#BEND 6E        N/A         74  36  25  CALM    30.04F
#BEND 1SW       N/A         70  42  36  N1      N/A
#BEND-AWBREY    N/A         76  44  32  SW3     30.15F
#BEND-KIM LN    N/A         74  45  35  NE1     30.16F
#CULVER         N/A         72  47  41  N5      30.13F
#LAKE BILLY CHINN/A         73   8   8  N6      30.19F
#MADRAS         N/A         70  46  42  N5      N/A
#POWELL BUTTE   N/A         76  42  30  SE5     29.79
#PRINEVILLE 3N  N/A         74  48  40  E6      30.09F
#WARM SPRINGS   N/A         75  50  41  CALM    30.11F

$$


ORZ509-270010-
EAST SLOPES OF OREGON CASCADES

CITY            SKY/WX      TMP DP  RH  WIND    PRES   REMARKS
#BLUE BOX PASS  N/A         68  10  10  CALM    N/A
#CAMP SHERMAN   N/A         73  42  33  CALM    30.15F
#LA PINE 4NW    N/A         72  42  34  CALM    30.23F
#LAVA BUTTE DOT N/A         72  33  24  SW2     N/A
#SISTERS AIRPOR N/A         73  49  43  CALM    30.17S
#SISTERS ODOT   N/A         72  N/A N/A SE2     N/A
#SISTERS 1NW    N/A         74  38  27  E3      N/A
#SISTERS 3N     N/A         74  47  38  CALM    30.19F
#SUNRIVER       N/A         71  42  35  SE2     30.07F
#TUMALO 3W      N/A         73  40  30  NE2     30.02F
#WANOGA BUTTE D N/A         62  36  38  SW2     N/A

$$

ORZ044-270010-
LOWER COLUMBIA BASIN...OREGON

CITY            SKY/WX      TMP DP  RH  WIND    PRES   REMARKS
HERMISTON       SUNNY       73  44  35  NE6     30.17F
#BOARDMAN SCHOOLN/A         N/A N/A N/A CALM    30.17F
#BOARDMAN 8SW   N/A         70  51  51  N5      30.16F
#ECHO 8SW       N/A         72  46  39  NE7     30.15F
#IONE SCHOOL    N/A         70  49  47  NE5     30.15F
#IRRIGON 4NW    N/A         72  49  44  E2      N/A
#UMATILLA       N/A         73  44  35  VRB1    30.09F
$$

ORZ507-270010-
NORTHERN FOOTHILLS OF THE BLUES

CITY            SKY/WX      TMP DP  RH  WIND    PRES   REMARKS
PENDLETON AIRPT SUNNY       72  45  38  N6      30.18F
#ADAMS 3WNW     N/A         70  51  51  NE3     30.17F
#ATHENA         N/A         68  50  53  N3      30.20F
#CAYUSE         N/A         71  50  47  NE7     30.16F
#HELIX SCHOOL   N/A         69  50  51  NE3     30.19F
#HELIX 3N       N/A         66  47  50  NE9     30.17F
#HOLDMAN 5SE    N/A         71  50  47  CALM    30.18F
#HOLDMAN 6E     N/A         70  49  47  S3      30.00F
#M-F FERNDALE   N/A         77  45  32  CALM    30.17F
#M-FREEWATER 5SEN/A         71  50  47  CALM    30.18F
#PENDLETON DNTN N/A         77  43  30  N1      30.16F
#PDT AQUATIC CTRN/A         76  49  39  NE2     30.19S
#PENDLETON 5NE  N/A         72  50  46  E1      30.14F
#PDT SUNRIDGE   N/A         74  47  38  CALM    30.18F
#PENDLETON 7NW  N/A         71  49  46  CALM    N/A
#PILOT ROCK     N/A         71  46  41  CALM    30.19F
#TUTUILLA       N/A         73  49  43  NE7     30.18F
#UMAPINE 2E     N/A         74  49  41  N2      30.15F
#WESTON SCHOOL  N/A         67  46  47  E6      30.15F

$$

ORZ508-270010-
SOUTHERN FOOTHILLS OF THE BLUES

CITY            SKY/WX      TMP DP  RH  WIND    PRES   REMARKS
LEXINGTON       SUNNY       72  48  43  N12     30.19F
#AJAX           N/A         68  46  45  N8      30.11F
#CONDON SCHOOL  N/A         68  52  57  CALM    30.14F
#CONDON 5W      N/A         65  47  52  NE7     30.18F
#FOSSIL SCHOOL  N/A         73  46  38  CALM    30.14F
#HEPPNER EOC    N/A         74  52  46  NW3     30.10F
#HEPPNER 4NE    N/A         66  51  58  NE8     30.17F
#LEXINGTON 2SE  N/A         73  52  48  NE7     30.15F
#MIKKALO        N/A         71  49  46  NE5     30.17F
#OLEX 4N        N/A         68  51  55  NE5     30.16F
#RUGGS 5NE      N/A         71  48  44  N6      30.36F
#RUGGS 2SW      N/A         66  52  61  N7      30.19F

$$

ORZ502-503-270010-
BLUE MOUNTAINS

CITY            SKY/WX      TMP DP  RH  WIND    PRES   REMARKS
MEACHAM         SUNNY       65  42  43  E6      30.26F
#BATTLE MTN DOT N/A         66  44  45  S3      N/A
#HARDMAN 10S    N/A         64  40  41  SW1     30.35F
#HEPPNER 15SE   N/A         65  47  52  CALM    30.16F
#LADD CYN SMT   N/A         61  35  38  SE9     N/A
#LADD CREEK ODOTN/A         66  42  42  S7      N/A
#LONG CREEK HS  N/A         67  43  42  CALM    30.19F
#N POWDER DOT   N/A         64  40  41  SE8     N/A
#PIKES PEAK     N/A         61  47  60  N3      27.99S
#TOLLGATE       N/A         55  43  64  E1      30.22F
#TROY SCHOOL    N/A         69  47  45  CALM    30.08F
#UKIAH          N/A         70  46  42  SE2     30.27F
#WESTON 4E      N/A         65  47  52  E1      30.18F
$$

ORZ505-270010-
JOHN DAY BASIN

CITY            SKY/WX      TMP DP  RH  WIND    PRES   REMARKS
JOHN DAY        SUNNY       69  42  37  E7      30.24F
#JOHN DAY KJDY  N/A         67  37  33  CALM    30.20F
#DAYVILLE SCHOOLN/A         73  43  34  E2      30.14F
#MITCHELL       N/A         73  51  46  S5      30.29F
#MONUMENT HS    N/A         74  41  30  CALM    30.17F
#MT. VERNON 5SE N/A         66  43  43  N2      30.20F
$$

ORZ506-270010-
OCHOCO AND JOHN DAY HIGHLANDS

CITY            SKY/WX      TMP DP  RH  WIND    PRES   REMARKS
#BUCK CREEK DOT N/A         69  69  100 SE5     N/A
#HORSE RIDGE DO N/A         73  32  22  S7      N/A
#KEYES SMT DOT  N/A         68  40  36  CALM    N/A
#PAULINA SCHOOL N/A         71  43  36  S6      30.18F
#PINE MTN OBS   N/A         59  33  37  SE10    N/A
#PRAIRIE CITY   N/A         69  41  36  CALM    30.10F
#SENECA         N/A         62  N/A N/A SE6     N/A
#SENECA 9NW     N/A         65  45  48  W1      30.26F
$$

ORZ049-270010-
GRANDE RONDE VALLEY

CITY            SKY/WX      TMP DP  RH  WIND    PRES   REMARKS
LA GRANDE       SUNNY       66  41  40  S12     30.23F
#COVE           N/A         67  49  52  S3      30.23F
#COVE SCHOOL    N/A         68  46  45  S2      30.20F
#ELGIN 3N       N/A         66  42  42  SW5     30.21F
#ELGIN 1E       N/A         67  46  47  CALM    N/A
#IMBLER SCHOOL  N/A         65  46  50  W3      30.19F
#ISLAND CITY 4N N/A         70  52  53  CALM    30.15F
#LADD CYN DOT   N/A         65  42  43  S9      N/A
#UNION 1S       N/A         66  46  48  S7      30.16F
$$

ORZ050-270010-
WALLOWA COUNTY

CITY            SKY/WX      TMP DP  RH  WIND    PRES   REMARKS
#ENTERPRISE HS  N/A         64  47  54  NW2     30.23F
#IMNAHA SCHOOL  N/A         72  44  37  SW7     30.20F
#IMNAHA 10S     N/A         67  41  39  S5      30.22F
#JOSEPH 3N      N/A         62  41  46  NW2     30.27F
#JOSEPH 3W      N/A         60  42  51  CALM    30.11F
#LOSTINE        N/A         64  44  48  N1      30.10F
#MT HOWARD 8000 N/A         46  40  79  CALM    30.41S
#PROMISE 1S     N/A         61  47  60  SE3     30.36F
#SHEEP RDG 7000 N/A         45  38  76  CALM    30.35F
#WALLOWA SCHOOL N/A         64  44  48  CALM    31.23F



$$



USA.gov is the U.S. government's official web portal to all federal, state and local government web resources and services.